N7NKE Weather Reports


time (UTC)temp
F
wind
direction
speed
knots
gust
knots
rain 1hr
in
rain 24hr
in
rain mn
in
humidity
%
barometer
mb
20220124112505 32 169 0.9 1.7 0.00 0.00 0.00 94 1025.2
20220124112004 32 126 0.0 1.7 0.00 0.00 0.00 94 1025.3
20220124111505 32 122 0.9 1.7 0.00 0.00 0.00 94 1025.4
20220124111005 32 352 0.9 1.7 0.00 0.00 0.00 94 1025.6
20220124110506 32 245 0.9 2.6 0.00 0.00 0.00 94 1025.6
20220124110005 32 182 0.0 0.9 0.00 0.00 0.00 94 1025.5
20220124105505 32 182 0.0 0.9 0.00 0.00 0.00 94 1025.4
20220124105005 32 182 0.0 1.7 0.00 0.00 0.00 94 1025.5
20220124104504 32 182 0.9 1.7 0.00 0.00 0.00 94 1025.5
20220124104005 32 182 0.0 0.0 0.00 0.00 0.00 94 1025.5
20220124103505 33 182 0.0 1.7 0.00 0.00 0.00 94 1025.5
20220124103004 33 182 0.0 0.9 0.00 0.00 0.00 94 1025.5
20220124102504 33 182 0.9 1.7 0.00 0.00 0.00 94 1025.5
20220124102005 33 182 0.0 0.9 0.00 0.00 0.00 94 1025.6
20220124101505 33 182 0.0 0.9 0.00 0.00 0.00 94 1025.6
20220124101004 33 182 0.9 1.7 0.00 0.00 0.00 94 1025.6
20220124100506 33 182 0.0 0.9 0.00 0.00 0.00 94 1025.7
20220124100004 33 182 1.7 2.6 0.00 0.00 0.00 94 1025.5
20220124095505 33 147 0.0 0.9 0.00 0.00 0.00 94 1025.7
20220124095006 33 147 0.9 1.7 0.00 0.00 0.00 94 1025.6
20220124094505 33 147 0.0 0.9 0.00 0.00 0.00 94 1025.7
20220124094005 33 147 0.0 0.9 0.00 0.00 0.00 94 1025.7
20220124093505 33 147 0.9 1.7 0.00 0.00 0.00 94 1025.6
20220124093005 33 147 0.9 1.7 0.00 0.00 0.00 94 1025.5
20220124092505 33 176 0.9 1.7 0.00 0.00 0.00 94 1025.4
20220124092006 33 183 0.0 1.7 0.00 0.00 0.00 94 1025.5
20220124091505 33 183 1.7 2.6 0.00 0.00 0.00 94 1025.5
20220124091005 33 137 0.9 1.7 0.00 0.00 0.00 94 1025.7
20220124090505 33 55 0.9 1.7 0.00 0.00 0.00 94 1025.8
20220124090005 33 150 0.0 1.7 0.00 0.00 0.00 94 1025.8
20220124085505 33 150 0.0 1.7 0.00 0.00 0.00 93 1025.7
20220124085005 33 150 0.9 1.7 0.00 0.00 0.00 94 1025.7
20220124084505 33 150 0.9 1.7 0.00 0.00 0.00 94 1025.9
20220124084005 33 150 0.9 0.9 0.00 0.00 0.00 93 1025.8
20220124083505 34 150 0.0 0.9 0.00 0.00 0.00 94 1025.7
20220124083006 34 150 0.9 1.7 0.00 0.00 0.00 94 1025.7
20220124082505 34 189 0.9 1.7 0.00 0.00 0.00 94 1025.8
20220124082005 34 189 1.7 2.6 0.00 0.00 0.00 94 1025.7
20220124081505 34 157 0.9 1.7 0.00 0.00 0.00 93 1025.8
20220124081005 34 50 0.9 1.7 0.00 0.00 0.00 93 1026.0
20220124080505 34 44 0.0 0.9 0.00 0.00 0.00 93 1025.9
20220124080005 34 44 0.0 0.9 0.00 0.00 0.00 93 1026.0
20220124075505 34 44 0.0 0.0 0.00 0.00 0.00 93 1026.1
20220124075005 35 44 0.0 0.9 0.00 0.00 0.00 93 1026.1
20220124074505 35 44 0.0 1.7 0.00 0.00 0.00 94 1026.1
20220124074004 35 45 0.9 1.7 0.00 0.00 0.00 94 1026.1
20220124073505 35 46 0.9 1.7 0.00 0.00 0.00 93 1026.0
20220124073005 35 298 0.0 0.9 0.00 0.00 0.00 93 1026.0
20220124072505 35 298 0.0 0.9 0.00 0.00 0.00 93 1026.0
20220124072005 35 298 0.0 0.9 0.00 0.00 0.00 94 1026.0
20220124071505 35 298 0.0 0.9 0.00 0.00 0.00 94 1026.1
20220124071005 35 293 0.0 1.7 0.00 0.00 0.00 94 1026.1
20220124070505 36 238 0.0 0.9 0.00 0.00 0.00 93 1026.0
20220124070005 36 238 0.0 1.7 0.00 0.00 0.00 94 1026.1
20220124065505 36 238 0.9 1.7 0.00 0.00 0.00 94 1026.0
20220124065005 36 238 0.9 1.7 0.00 0.00 0.00 94 1026.1
20220124064504 35 238 0.9 1.7 0.00 0.00 0.00 93 1026.0
20220124064005 35 270 0.9 1.7 0.00 0.00 0.00 93 1026.1
20220124063506 35 271 0.0 0.9 0.00 0.00 0.00 93 1026.2
20220124063005 35 270 0.9 0.9 0.00 0.00 0.00 93 1026.0
20220124062504 35 270 0.0 0.9 0.00 0.00 0.00 93 1026.0
20220124062005 35 270 0.0 0.9 0.00 0.00 0.00 93 1025.9
20220124061505 36 270 0.0 0.0 0.00 0.00 0.00 93 1025.9
20220124061005 36 270 0.0 0.0 0.00 0.00 0.00 93 1026.0
20220124060505 36 270 0.9 0.9 0.00 0.00 0.00 93 1025.9
20220124060005 36 271 0.0 0.9 0.00 0.00 0.00 93 1025.8
20220124055504 36 270 0.9 1.7 0.00 0.00 0.00 93 1025.9
20220124055005 36 5 0.0 0.9 0.00 0.00 0.00 93 1025.9
20220124054505 36 5 0.0 1.7 0.00 0.00 0.00 92 1026.0
20220124054005 37 5 1.7 2.6 0.00 0.00 0.00 92 1026.0
20220124053505 37 224 0.9 1.7 0.00 0.00 0.00 92 1026.0
20220124053005 37 222 0.0 0.9 0.00 0.00 0.00 92 1026.0
20220124052505 37 222 0.9 1.7 0.00 0.00 0.00 93 1026.0
20220124052005 37 222 0.9 1.7 0.00 0.00 0.00 93 1025.9
20220124051505 38 222 0.9 1.7 0.00 0.00 0.00 93 1025.9
20220124051005 38 222 1.7 2.6 0.00 0.00 0.00 92 1025.9
20220124050505 38 222 1.7 2.6 0.00 0.00 0.00 92 1025.9
20220124050006 38 223 0.0 0.9 0.00 0.00 0.00 92 1026.0
20220124045505 38 222 0.0 0.9 0.00 0.00 0.00 92 1026.0
20220124045004 38 222 0.0 1.7 0.00 0.00 0.00 92 1026.0
20220124044504 38 222 0.9 2.6 0.00 0.00 0.00 92 1025.9
20220124044004 38 222 1.7 2.6 0.00 0.00 0.00 92 1025.9
20220124043505 38 222 1.7 2.6 0.00 0.00 0.00 92 1025.9
20220124043005 39 222 0.9 1.7 0.00 0.00 0.00 92 1026.0
20220124042504 39 222 0.9 1.7 0.00 0.00 0.00 92 1025.9
20220124042005 39 222 0.9 1.7 0.00 0.00 0.00 92 1025.8
20220124041504 39 222 1.7 1.7 0.00 0.00 0.00 92 1025.9
20220124041005 39 222 0.9 1.7 0.00 0.00 0.00 92 1025.8
20220124040505 39 222 0.9 0.9 0.00 0.00 0.00 92 1025.9
20220124040005 39 222 0.9 0.9 0.00 0.00 0.00 91 1025.8
20220124035506 39 222 0.0 0.9 0.00 0.00 0.00 91 1025.8
20220124035005 39 222 0.0 0.0 0.00 0.00 0.00 91 1025.8
20220124034504 40 222 0.0 0.0 0.00 0.00 0.00 91 1025.7
20220124034004 40 222 0.0 0.0 0.00 0.00 0.00 91 1025.7
20220124033505 40 222 0.0 0.9 0.00 0.00 0.00 91 1025.6
20220124033005 40 222 0.0 0.9 0.00 0.00 0.00 91 1025.6
20220124032505 40 222 0.9 1.7 0.00 0.00 0.00 91 1025.5
20220124032004 41 222 0.9 1.7 0.00 0.00 0.00 91 1025.5
20220124031505 41 223 0.9 1.7 0.00 0.00 0.00 91 1025.5
20220124031005 41 232 1.7 2.6 0.00 0.00 0.00 91 1025.5
20220124030505 41 232 1.7 2.6 0.00 0.00 0.00 91 1025.4
20220124030005 41 250 0.9 1.7 0.00 0.00 0.00 90 1025.4
20220124025504 41 246 1.7 2.6 0.00 0.00 0.00 90 1025.3
20220124025005 41 234 1.7 2.6 0.00 0.00 0.00 89 1025.3
20220124024505 41 234 1.7 2.6 0.00 0.00 0.00 89 1025.4
20220124024005 42 336 0.0 1.7 0.00 0.00 0.00 89 1025.5
20220124023505 42 331 0.9 1.7 0.00 0.00 0.00 88 1025.5
20220124023005 42 232 0.9 1.7 0.00 0.00 0.00 88 1025.5
20220124022504 43 232 0.0 0.9 0.00 0.00 0.00 88 1025.4
20220124022004 43 232 0.9 1.7 0.00 0.00 0.00 88 1025.3
20220124021506 43 232 1.7 2.6 0.00 0.00 0.00 88 1025.3
20220124021005 43 233 0.9 1.7 0.00 0.00 0.00 88 1025.3
20220124020505 43 227 0.9 2.6 0.00 0.00 0.00 88 1025.3
20220124020005 44 232 1.7 2.6 0.00 0.00 0.00 88 1025.3
20220124015505 44 244 1.7 2.6 0.00 0.00 0.00 87 1025.2
20220124015005 44 244 1.7 2.6 0.00 0.00 0.00 87 1025.2
20220124014505 44 237 1.7 2.6 0.00 0.00 0.00 87 1025.1
20220124014005 45 222 1.7 2.6 0.00 0.00 0.00 86 1025.1
20220124013504 45 216 1.7 2.6 0.00 0.00 0.00 86 1025.0
20220124013005 45 215 1.7 2.6 0.00 0.00 0.00 86 1025.0
20220124012504 45 222 1.7 2.6 0.00 0.00 0.00 85 1025.0
20220124012004 46 236 1.7 2.6 0.00 0.00 0.00 84 1024.9
20220124011505 46 248 1.7 2.6 0.00 0.00 0.00 83 1024.8
20220124011005 46 248 1.7 2.6 0.00 0.00 0.00 83 1024.9
20220124010504 47 248 0.9 1.7 0.00 0.00 0.00 83 1024.9
20220124010005 47 248 0.9 1.7 0.00 0.00 0.00 82 1024.9
20220124005505 48 248 0.9 1.7 0.00 0.00 0.00 82 1025.0
20220124005005 48 248 0.9 1.7 0.00 0.00 0.00 81 1024.9
20220124004504 48 248 0.9 1.7 0.00 0.00 0.00 81 1024.9
20220124004004 49 240 1.7 2.6 0.00 0.00 0.00 80 1024.9
20220124003504 49 246 0.9 1.7 0.00 0.00 0.00 79 1024.9
20220124003005 49 221 0.9 1.7 0.00 0.00 0.00 79 1025.1
20220124002504 50 189 0.9 1.7 0.00 0.00 0.00 79 1025.0
20220124002005 50 189 0.0 0.9 0.00 0.00 0.00 78 1025.1
20220124001504 51 189 0.0 0.9 0.00 0.00 0.00 78 1025.1
20220124001005 51 189 0.0 1.7 0.00 0.00 0.00 77 1025.1
20220124000504 51 189 0.9 2.6 0.00 0.00 0.00 75 1025.1
20220124000005 51 129 1.7 2.6 0.00 0.00 0.00 72 1025.1
20220123235505 51 148 1.7 2.6 0.00 0.00 0.00 76 1025.1
20220123235005 51 110 1.7 2.6 0.00 0.00 0.00 74 1025.2
20220123234504 51 161 0.9 2.6 0.00 0.00 0.00 75 1025.1
20220123234005 51 102 0.9 2.6 0.00 0.00 0.00 74 1025.1
20220123233505 51 52 0.9 1.7 0.00 0.00 0.00 74 1025.0
20220123233005 51 37 0.0 1.7 0.00 0.00 0.00 75 1025.0
20220123232504 51 37 0.9 1.7 0.00 0.00 0.00 74 1025.0
20220123232005 51 37 0.9 0.9 0.00 0.00 0.00 73 1025.1
20220123231505 51 37 0.9 1.7 0.00 0.00 0.00 72 1025.1
20220123231005 51 44 0.9 1.7 0.00 0.00 0.00 73 1025.1
20220123230504 51 44 0.9 1.7 0.00 0.00 0.00 74 1025.2
20220123230005 51 5 0.9 1.7 0.00 0.00 0.00 74 1025.2
20220123225504 51 333 0.9 2.6 0.00 0.00 0.00 75 1025.2
20220123225005 51 6 0.9 2.6 0.00 0.00 0.00 75 1025.3
20220123224505 51 88 0.9 2.6 0.00 0.00 0.00 74 1025.3
20220123224004 51 352 0.9 1.7 0.00 0.00 0.00 76 1025.3
20220123223504 51 328 0.9 2.6 0.00 0.00 0.00 76 1025.3
20220123223005 51 18 1.7 2.6 0.00 0.00 0.00 76 1025.4
20220123222505 51 39 1.7 2.6 0.00 0.00 0.00 77 1025.4
20220123222005 51 340 1.7 2.6 0.00 0.00 0.00 76 1025.3
20220123221504 50 37 1.7 2.6 0.00 0.00 0.00 76 1025.3
20220123221004 50 58 1.7 2.6 0.00 0.00 0.00 75 1025.3
20220123220505 50 111 1.7 2.6 0.00 0.00 0.00 75 1025.3
20220123220005 50 92 1.7 2.6 0.00 0.00 0.00 76 1025.4
20220123215504 49 44 0.0 1.7 0.00 0.00 0.00 78 1025.5
20220123215005 49 36 1.7 2.6 0.00 0.00 0.00 78 1025.5
20220123214504 49 292 0.9 1.7 0.00 0.00 0.00 79 1025.5
20220123214005 49 206 0.0 0.9 0.00 0.00 0.00 78 1025.6
20220123213504 49 163 0.9 1.7 0.00 0.00 0.00 78 1025.7
20220123213004 49 41 0.9 2.6 0.00 0.00 0.00 79 1025.8
20220123212504 48 30 0.9 1.7 0.00 0.00 0.00 78 1025.8
20220123212005 48 12 0.9 1.7 0.00 0.00 0.00 77 1025.9
20220123211504 48 92 0.9 1.7 0.00 0.00 0.00 78 1026.0
20220123211005 48 259 0.9 1.7 0.00 0.00 0.00 77 1026.1
20220123210505 48 93 1.7 2.6 0.00 0.00 0.00 78 1026.1
20220123210005 48 330 0.0 2.6 0.00 0.00 0.00 76 1026.2
20220123205505 48 7 1.7 2.6 0.00 0.00 0.00 78 1026.2
20220123205005 48 80 1.7 2.6 0.00 0.00 0.00 77 1026.2
20220123204504 49 103 0.9 2.6 0.00 0.00 0.00 75 1026.4
20220123204005 49 52 0.9 2.6 0.00 0.00 0.00 77 1026.4
20220123203504 49 29 1.7 2.6 0.00 0.00 0.00 77 1026.4
20220123203005 49 37 1.7 2.6 0.00 0.00 0.00 78 1026.4
20220123202505 48 73 0.9 2.6 0.00 0.00 0.00 79 1026.5
20220123202005 47 3 0.9 2.6 0.00 0.00 0.00 79 1026.5
20220123201505 47 24 0.9 1.7 0.00 0.00 0.00 79 1026.6
20220123201005 48 86 0.9 2.6 0.00 0.00 0.00 77 1026.7
20220123200505 48 37 1.7 4.3 0.00 0.00 0.00 77 1026.8
20220123200005 48 37 1.7 2.6 0.00 0.00 0.00 79 1027.0
20220123195504 47 20 0.9 2.6 0.00 0.00 0.00 79 1027.1
20220123195005 47 73 1.7 2.6 0.00 0.00 0.00 79 1027.1
20220123194505 47 112 1.7 5.2 0.00 0.00 0.00 76 1027.2
20220123194005 47 114 1.7 2.6 0.00 0.00 0.00 78 1027.3
20220123193504 47 127 1.7 2.6 0.00 0.00 0.00 78 1027.4
20220123193005 46 124 1.7 2.6 0.00 0.00 0.00 80 1027.4
20220123192504 47 169 1.7 2.6 0.00 0.00 0.00 83 1027.4
20220123192006 46 119 1.7 2.6 0.00 0.00 0.00 82 1027.5
20220123191505 46 132 2.6 2.6 0.00 0.00 0.00 84 1027.6
20220123191005 45 144 0.9 2.6 0.00 0.00 0.00 84 1027.7
20220123190505 45 174 1.7 2.6 0.00 0.00 0.00 86 1027.7
20220123190005 44 142 1.7 2.6 0.00 0.00 0.00 87 1027.8
20220123185505 43 175 1.7 2.6 0.00 0.00 0.00 89 1027.8
20220123185005 42 190 0.0 1.7 0.00 0.00 0.00 89 1027.8
20220123184504 42 191 0.9 2.6 0.00 0.00 0.00 90 1027.9
20220123184005 41 146 0.9 1.7 0.00 0.00 0.00 92 1027.8
20220123183505 41 146 0.9 2.6 0.00 0.00 0.00 93 1028.0
20220123183005 41 112 1.7 2.6 0.00 0.00 0.00 94 1027.9
20220123182504 40 126 1.7 2.6 0.00 0.00 0.00 95 1027.9
20220123182004 39 124 1.7 2.6 0.00 0.00 0.00 95 1027.9
20220123181505 38 136 1.7 2.6 0.00 0.00 0.00 95 1027.9
20220123181004 37 184 0.0 0.9 0.00 0.00 0.00 95 1027.9
20220123180505 36 178 0.9 2.6 0.00 0.00 0.00 95 1027.9
20220123180004 36 125 0.9 2.6 0.00 0.00 0.00 95 1027.9
20220123175504 34 52 0.9 1.7 0.00 0.00 0.00 95 1027.9
20220123175005 34 44 0.9 1.7 0.00 0.00 0.00 95 1027.8
20220123174505 34 44 0.9 1.7 0.00 0.00 0.00 95 1027.9
20220123174005 34 44 0.9 1.7 0.00 0.00 0.00 95 1027.9
20220123173505 34 41 0.9 1.7 0.00 0.00 0.00 95 1027.9
20220123173005 33 143 0.9 1.7 0.00 0.00 0.00 95 1027.9
20220123172504 33 143 0.9 1.7 0.00 0.00 0.00 95 1027.9
20220123172004 33 143 0.9 1.7 0.00 0.00 0.00 95 1027.8
20220123171504 33 143 0.9 1.7 0.00 0.00 0.00 95 1027.9
20220123171004 32 143 0.0 1.7 0.00 0.00 0.00 95 1027.9
20220123170504 32 143 0.9 1.7 0.00 0.00 0.00 95 1027.8
20220123170004 31 196 0.9 1.7 0.00 0.00 0.00 94 1027.9
20220123165504 31 196 0.9 1.7 0.00 0.00 0.00 95 1027.8
20220123165005 31 196 0.0 0.9 0.00 0.00 0.00 94 1027.8
20220123164504 31 196 0.0 0.0 0.00 0.00 0.00 94 1027.8
20220123164005 30 196 0.0 0.9 0.00 0.00 0.00 94 1027.8
20220123163504 30 196 0.0 0.9 0.00 0.00 0.00 94 1027.8
20220123163004 30 196 0.0 0.9 0.00 0.00 0.00 94 1027.8
20220123162504 30 196 0.0 0.9 0.00 0.00 0.00 95 1027.9
20220123162005 30 196 0.0 0.9 0.00 0.00 0.00 94 1027.9
20220123161505 30 196 0.9 1.7 0.00 0.00 0.00 94 1027.9
20220123161004 30 196 0.9 1.7 0.00 0.00 0.00 94 1027.9
20220123160504 30 196 0.0 0.9 0.00 0.00 0.00 94 1028.0
20220123160005 30 196 0.0 0.9 0.00 0.00 0.00 94 1028.0
20220123155505 30 196 0.0 0.0 0.00 0.00 0.00 94 1028.0
20220123155004 30 196 0.0 0.9 0.00 0.00 0.00 94 1028.0
20220123154505 30 196 0.0 0.0 0.00 0.00 0.00 94 1027.8
20220123154005 30 196 0.0 0.9 0.00 0.00 0.00 94 1027.9
20220123153504 30 196 0.0 0.9 0.00 0.00 0.00 94 1027.9
20220123153005 30 196 0.0 0.9 0.00 0.00 0.00 94 1027.9
20220123152505 30 196 0.0 0.9 0.00 0.00 0.00 94 1028.0
20220123152004 30 196 0.9 0.9 0.00 0.00 0.00 94 1028.0
20220123151504 30 196 0.0 0.9 0.00 0.00 0.00 94 1028.1
20220123151005 30 196 0.0 1.7 0.00 0.00 0.00 94 1028.0
20220123150504 30 196 0.9 0.9 0.00 0.00 0.00 94 1028.0
20220123150005 30 196 0.0 1.7 0.00 0.00 0.00 94 1028.0
20220123145504 30 196 0.9 1.7 0.00 0.00 0.00 94 1027.9
20220123145005 30 196 0.9 0.9 0.00 0.00 0.00 94 1027.8
20220123144505 30 196 0.0 0.0 0.00 0.00 0.00 94 1027.8
20220123144005 30 196 0.0 0.0 0.00 0.00 0.00 94 1027.8
20220123143505 30 196 0.0 0.9 0.00 0.00 0.00 94 1027.9
20220123143005 30 196 0.0 0.9 0.00 0.00 0.00 94 1027.8
20220123142505 30 196 0.0 0.0 0.00 0.00 0.00 94 1027.8
20220123142005 30 196 0.0 0.0 0.00 0.00 0.00 94 1027.7
20220123141504 30 196 0.0 0.0 0.00 0.00 0.00 94 1027.7
20220123141005 31 196 0.0 0.0 0.00 0.00 0.00 94 1027.6
20220123140505 31 196 0.0 0.9 0.00 0.00 0.00 94 1027.8
20220123140004 31 196 0.0 1.7 0.00 0.00 0.00 94 1027.7
20220123135505 31 196 0.9 1.7 0.00 0.00 0.00 94 1027.7
20220123135004 31 196 0.9 1.7 0.00 0.00 0.00 94 1027.7
20220123134505 31 196 0.0 0.9 0.00 0.00 0.00 94 1027.7
20220123134004 31 196 0.0 0.9 0.00 0.00 0.00 94 1027.7
20220123133504 31 196 0.0 0.9 0.00 0.00 0.00 94 1027.7
20220123133005 31 196 0.0 0.9 0.00 0.00 0.00 94 1027.7
20220123132505 31 196 0.9 0.9 0.00 0.00 0.00 94 1027.7
20220123132005 31 196 0.9 1.7 0.00 0.00 0.00 94 1027.7
20220123131505 31 196 0.9 1.7 0.00 0.00 0.00 94 1027.7
20220123131005 31 196 0.0 0.9 0.00 0.00 0.00 94 1027.8
20220123130505 31 196 0.0 0.9 0.00 0.00 0.00 94 1027.8
20220123130004 31 196 0.0 0.9 0.00 0.00 0.00 94 1027.8
20220123125505 31 196 0.0 0.9 0.00 0.00 0.00 94 1027.8
20220123125005 31 196 0.0 0.0 0.00 0.00 0.00 94 1027.9
20220123124504 31 196 0.0 0.9 0.00 0.00 0.00 94 1027.9
20220123124005 31 196 0.9 1.7 0.00 0.00 0.00 94 1027.9
20220123123504 31 196 0.9 1.7 0.00 0.00 0.00 94 1027.9
20220123123005 31 196 0.9 1.7 0.00 0.00 0.00 94 1028.0
20220123122504 31 196 0.0 0.9 0.00 0.00 0.00 94 1028.0
20220123122005 31 196 0.0 0.9 0.00 0.00 0.00 94 1028.0
20220123121505 31 196 0.0 0.9 0.00 0.00 0.00 94 1028.1
20220123121005 31 196 0.0 0.0 0.00 0.00 0.00 94 1028.1
20220123120504 31 196 0.0 0.9 0.00 0.00 0.00 94 1028.1
20220123120005 31 196 0.0 0.9 0.00 0.00 0.00 94 1028.1
20220123115504 31 196 0.0 0.9 0.00 0.00 0.00 94 1028.2
20220123115004 31 196 0.9 1.7 0.00 0.00 0.00 94 1028.2
20220123114505 31 196 0.9 1.7 0.00 0.00 0.00 94 1028.2
20220123114004 31 197 0.9 1.7 0.00 0.00 0.00 94 1028.2
20220123113505 31 196 0.9 1.7 0.00 0.00 0.00 94 1028.2
20220123113004 31 196 0.0 0.9 0.00 0.00 0.00 94 1028.3